Weather History for Elefsis, Greece

Change the Weather History Date:

Saturday, March 10, 2012

  Actual Average Record
Temperature  
Mean Temperature 52 °F -  
Max Temperature 55 °F 61 °F 66 °F (2002)
Min Temperature 48 °F 45 °F 28 °F (2011)
Degree Days  
Heating Degree Days 14    
Growing Degree Days 2 (Base 50)    
Moisture  
Dew Point 36 °F    
Average Humidity 57    
Maximum Humidity 71    
Minimum Humidity 44    
Precipitation  
Precipitation 0.00 in - - ()
Sea Level Pressure  
Sea Level Pressure 30.26 in    
Wind  
Wind Speed 12 mph ()    
Max Wind Speed 23 mph    
Max Gust Speed 41 mph    
Visibility 6.2 miles    
Events      
Averages and records for this station are not official NWS values.
T = Trace of Precipitation, MM = Missing Value Source: Averaged Metar Reports

Daily Weather History Graph

Daily Weather History Graph

Search for Another Location

Airport:

Trip Planner

Search our weather history database for the weather conditions in past years. The results will help you decide how hot, cold, wet, or windy it might be!

Date:

Astronomy

Mar. 10, 2012 Rise Set
Actual Time 6:44 AM EET 6:28 PM EET
Civil Twilight 6:17 AM EET 6:54 PM EET
Nautical Twilight 5:47 AM EET 7:25 PM EET
Astronomical Twilight 5:16 AM EET 7:55 PM EET
Moon 9:13 PM EET (3/10) 7:30 AM EET (3/10)
Length of Visible Light 12h 36m
Length of Day
11h 44m
Waning Gibbous, 94% of the Moon is Illuminated
Mar 10
Waning Gibbous
Mar 15
Last Quarter
Mar 22
New
Mar 30
First Quarter
Apr 6
Full

Hourly Weather History & Observations

Time (EET) Temp. Dew Point Humidity Pressure Visibility Wind Dir Wind Speed Gust Speed Precip Events Conditions
12:20 AM 51.8 °F 42.8 °F 71% 30.36 in 6.2 mi NW 9.2 mph - N/A   Partly Cloudy
12:50 AM 51.8 °F 42.8 °F 71% 30.36 in 6.2 mi NNW 9.2 mph - N/A   Partly Cloudy
1:20 AM 51.8 °F 42.8 °F 71% 30.36 in 6.2 mi NNW 9.2 mph - N/A   Mostly Cloudy
1:50 AM 51.8 °F 41.0 °F 67% 30.33 in 6.2 mi NNW 8.1 mph - N/A   Partly Cloudy
2:20 AM 51.8 °F 41.0 °F 67% 30.33 in 6.2 mi NNW 8.1 mph - N/A   Partly Cloudy
2:50 AM 51.8 °F 41.0 °F 67% 30.30 in 6.2 mi NNW 9.2 mph - N/A   Partly Cloudy
3:20 AM 51.8 °F 41.0 °F 67% 30.30 in 6.2 mi NNW 9.2 mph - N/A   Partly Cloudy
3:50 AM 50.0 °F 41.0 °F 71% 30.33 in 6.2 mi NNW 11.5 mph - N/A   Partly Cloudy
4:20 AM 50.0 °F 41.0 °F 71% 30.33 in 6.2 mi North 11.5 mph - N/A   Partly Cloudy
4:50 AM 50.0 °F 41.0 °F 71% 30.33 in 6.2 mi North 13.8 mph - N/A   Partly Cloudy
5:50 AM 50.0 °F 41.0 °F 71% 30.33 in 6.2 mi NW 13.8 mph - N/A   Partly Cloudy
6:20 AM 50.0 °F 41.0 °F 71% 30.33 in 6.2 mi NW 13.8 mph - N/A   Partly Cloudy
6:50 AM 50.0 °F 39.2 °F 66% 30.33 in 6.2 mi NW 16.1 mph - N/A   Partly Cloudy
7:20 AM 50.0 °F 39.2 °F 66% 30.33 in 6.2 mi NNW 13.8 mph - N/A   Partly Cloudy
7:50 AM 50.0 °F 39.2 °F 66% 30.33 in 6.2 mi NNW 13.8 mph - N/A   Partly Cloudy
8:20 AM 50.0 °F 39.2 °F 66% 30.33 in 6.2 mi NNW 15.0 mph - N/A   Partly Cloudy
8:50 AM 51.8 °F 37.4 °F 58% 30.33 in 6.2 mi NNW 12.7 mph - N/A   Partly Cloudy
9:20 AM 51.8 °F 37.4 °F 58% 30.33 in 6.2 mi NNW 16.1 mph - N/A   Partly Cloudy
9:50 AM 53.6 °F 37.4 °F 54% 30.33 in 6.2 mi NNW 12.7 mph - N/A   Scattered Clouds
10:20 AM 53.6 °F 37.4 °F 54% 30.33 in 6.2 mi NNW 13.8 mph - N/A   Scattered Clouds
10:50 AM 53.6 °F 35.6 °F 51% 30.33 in 6.2 mi NNW 15.0 mph - N/A   Scattered Clouds
11:20 AM 53.6 °F 35.6 °F 51% 30.33 in 6.2 mi NNW 13.8 mph - N/A   Scattered Clouds
11:50 AM 53.6 °F 33.8 °F 47% 30.30 in 6.2 mi NNW 11.5 mph - N/A   Scattered Clouds
12:20 PM 55.4 °F 33.8 °F 44% 30.30 in 6.2 mi NNW 11.5 mph - N/A   Scattered Clouds
12:50 PM 55.4 °F 33.8 °F 44% 30.27 in 6.2 mi NNW 15.0 mph - N/A   Scattered Clouds
1:20 PM 55.4 °F 33.8 °F 44% 30.27 in 6.2 mi NNW 13.8 mph - N/A   Scattered Clouds
1:50 PM 55.4 °F 35.6 °F 47% 30.24 in 6.2 mi North 16.1 mph - N/A   Scattered Clouds
2:20 PM 55.4 °F 35.6 °F 47% 30.24 in 6.2 mi NNW 17.3 mph - N/A   Scattered Clouds
2:50 PM 53.6 °F 32.0 °F 44% 30.24 in 6.2 mi NNW 17.3 mph - N/A   Scattered Clouds
3:20 PM 53.6 °F 32.0 °F 44% 30.24 in 6.2 mi NNW 16.1 mph - N/A   Mostly Cloudy
3:50 PM 53.6 °F 32.0 °F 44% 30.24 in 6.2 mi NNW 17.3 mph - N/A   Mostly Cloudy
4:20 PM 53.6 °F 32.0 °F 44% 30.24 in 6.2 mi North 13.8 mph 27.6 mph N/A   Mostly Cloudy
4:50 PM 51.8 °F 32.0 °F 47% 30.21 in 6.2 mi NNW 18.4 mph 29.9 mph N/A   Mostly Cloudy
5:20 PM 51.8 °F 32.0 °F 47% 30.21 in 6.2 mi North 15.0 mph 28.8 mph N/A   Mostly Cloudy
5:50 PM 50.0 °F 32.0 °F 50% 30.18 in 6.2 mi NNW 16.1 mph 29.9 mph N/A   Mostly Cloudy
6:20 PM 50.0 °F 32.0 °F 50% 30.18 in 6.2 mi NNW 19.6 mph 41.4 mph N/A   Mostly Cloudy
6:50 PM 50.0 °F 33.8 °F 54% 30.18 in 6.2 mi NNW 19.6 mph 41.4 mph N/A   Scattered Clouds
7:20 PM 50.0 °F 33.8 °F 54% 30.18 in 6.2 mi NNW 17.3 mph 28.8 mph N/A   Scattered Clouds
7:50 PM 48.2 °F 33.8 °F 58% 30.15 in 6.2 mi NNW 17.3 mph 28.8 mph N/A   Scattered Clouds
8:20 PM 48.2 °F 33.8 °F 58% 30.15 in 6.2 mi NNW 21.9 mph 33.4 mph N/A   Scattered Clouds
8:50 PM 48.2 °F 33.8 °F 58% 30.18 in 6.2 mi NNW 19.6 mph 31.1 mph N/A   Scattered Clouds
9:20 PM 48.2 °F 33.8 °F 58% 30.18 in 6.2 mi NNW 19.6 mph 31.1 mph N/A   Partly Cloudy
9:50 PM 48.2 °F 32.0 °F 54% 30.18 in 6.2 mi NNW 23.0 mph 36.8 mph N/A   Partly Cloudy
10:20 PM 48.2 °F 32.0 °F 54% 30.18 in 6.2 mi NNW 17.3 mph 28.8 mph N/A   Partly Cloudy
10:50 PM 48.2 °F 33.8 °F 58% 30.15 in 6.2 mi NNW 16.1 mph 29.9 mph N/A   Partly Cloudy
11:20 PM 48.2 °F 33.8 °F 58% 30.15 in 6.2 mi NNW 20.7 mph 32.2 mph N/A   Partly Cloudy
11:50 PM 48.2 °F 33.8 °F 58% 30.12 in 6.2 mi NNW 17.3 mph 31.1 mph N/A   Partly Cloudy